Meteo Giornale » Osservazioni meteo Italia » Monte Terminillo

ore: 01:55 - Osservazioni Meteo Monte Terminillo
Lat. 42° 28' N Lon. 12° 59' E Alt. 1874 metri s.l.m.

sereno Europe/Rome

4 °C

Sereno

Temp. 24 Ore

2 °C

8 °C

Ovest

11.1 Km/h

Dew point 2 °C

Umidità 86 %

Visibilità  0 Km

Il sole sorge alle ore 05:53

Il sole tramonta alle ore 20:15

Data e Ora Cielo e Fenomeni T °C DP °C Um. % Pres. hPa Vis. km Vento km/h
Oggi h: 01:55 sereno Sereno 4 2 86 1018 0 O 11.1
Oggi h: 00:55 sereno Sereno 4 2 86 1019 0 O 16.7
Ieri h: 23:55 sereno Sereno 4 3 93 1019 0 O 20.3
Ieri h: 23:10 sereno Sereno 4 3 93 1019 0 O/NO 31.5
Ieri h: 22:55 sereno Sereno 4 3 93 1019 0 O 27.8
Ieri h: 21:55 sereno Sereno 4 3 93 1019 0 O 20.3
Ieri h: 20:55 sereno Sereno 5 3 86 1018 0 NO 9.3
Ieri h: 19:55 sereno Sereno 6 2 75 1018 0 O 13
Ieri h: 17:55 sereno Sereno 7 3 75 1018 0 O 16.7
Ieri h: 16:55 sereno Sereno 8 3 70 1018 0 O 18.5
Ieri h: 15:55 sereno Sereno 8 2 65 1019 0 O 14.8
Ieri h: 14:55 sereno Sereno 8 3 70 1019 0 O 16.7
Ieri h: 13:55 sereno Sereno 7 2 70 1019 0 O/NO 13
Ieri h: 12:55 sereno Sereno 7 3 75 1019 0 N 9.3
Ieri h: 11:55 sereno Sereno 6 3 81 1019 0 O/NO 11.1
Ieri h: 10:55 sereno Sereno 5 3 86 1018 0 O 16.7
Ieri h: 09:55 sereno Sereno 4 1 80 1018 0 O 20.3
Ieri h: 08:55 sereno Sereno 3 1 86 1017 0 O/NO 7.4
Ieri h: 07:55 sereno Sereno 3 1 86 1017 0 N 3.7
Ieri h: 06:55 sereno Sereno 2 1 93 1016 0 O/NO 9.3
Ieri h: 05:55 sereno Sereno 2 2 100 1016 0 N 3.7
Ieri h: 03:55 sereno Sereno 3 2 93 1016 0 N 3.7